This demonstration page uses our WeatherBlox Daily Observations layout. Learn more.

40.92945, -100.16068

Hourly Observations for March 16, 2018

Temp ( °F °C ) Dew Point ( °F °C ) Humidity (%) Winds ( mph kmh ) Pressure ( in mb ) Visibility ( mi km ) Precip ( " mm )
12:15 am 00:15 Clear 47 8.3 28 -2.5 47 47 E 28 44 29.53 1000 10 16.0934 0 0
12:35 am 00:35 Clear 47 8.2 28 -2.5 47 47 E 24 39 29.53 1000 10 16.0934 0 0
12:55 am 00:55 Clear 47 8.2 28 -2.1 49 49 E 24 39 29.53 1000 10 16.0934 0 0
1:15 am 01:15 Partly Cloudy 47 8.2 28 -2 49 49 E 22 35 29.53 1000 10 16.0934 0 0
1:35 am 01:35 Partly Cloudy 47 8.2 29 -1.6 50 50 E 22 35 29.47 998 10 16.0934 0 0
1:55 am 01:55 Mostly Cloudy 46 8 31 -0.6 55 55 E 14 22 29.5 999 10 16.0934 0 0
2:15 am 02:15 Partly Cloudy 46 8 32 -0.2 57 57 E 25 41 29.5 999 10 16.0934 0 0
2:35 am 02:35 Partly Cloudy 47 8.2 32 -0.2 56 56 E 20 31 29.47 998 10 16.0934 0 0
2:55 am 02:55 Mostly Cloudy 46 7.8 31 -0.3 57 57 E 21 33 29.5 999 10 16.0934 0 0
3:15 am 03:15 Partly Cloudy 46 7.8 33 0.5 60 60 E 24 39 29.47 998 10 16.0934 0 0
3:35 am 03:35 Clear 46 7.6 33 0.6 62 62 E 20 31 29.47 998 10 16.0934 0 0
3:55 am 03:55 Clear 46 7.8 34 1 62 62 E 23 37 29.47 998 10 16.0934 0 0
4:15 am 04:15 Clear 46 7.5 33 0.5 62 62 E 23 37 29.47 998 10 16.0934 0 0
4:35 am 04:35 Clear 45 7.3 33 0.5 62 62 E 29 46 29.47 998 10 16.0934 0 0
4:55 am 04:55 Partly Cloudy 46 7.5 34 1 64 64 E 26 43 29.47 998 10 16.0934 0 0
5:15 am 05:15 Partly Cloudy 46 7.6 34 1.3 65 65 E 29 46 29.47 998 10 16.0934 0 0
5:35 am 05:35 Partly Cloudy 46 7.5 34 1.3 65 65 E 29 46 29.47 998 10 16.0934 0 0
5:55 am 05:55 Partly Cloudy 45 7 34 1 66 66 E 28 44 29.47 998 10 16.0934 0 0
6:15 am 06:15 Mostly Cloudy 44 6.7 33 0.7 66 66 E 23 37 29.5 999 10 16.0934 0 0
6:35 am 06:35 Cloudy with Light Drizzle 44 6.7 35 1.5 70 70 E 23 37 29.5 999 10 16.0934 0 0
6:55 am 06:55 Cloudy with Nearby Thunderstorms 45 7 34 1.3 67 67 E 24 39 29.5 999 10 16.0934 0 0
7:15 am 07:15 Cloudy with Heavy Thunderstorms 43 6 36 2.3 77 77 E 21 33 29.5 999 4 6.43736 0.05 1.27
7:35 am 07:35 Cloudy with Light Rain 42 5.8 37 3 82 82 E 18 30 29.5 999 10 16.0934 0.06 1.524
7:55 am 07:55 Cloudy 42 5.6 38 3.1 84 84 E 24 39 29.5 999 10 16.0934 0.06 1.524
8:15 am 08:15 Cloudy 42 5.5 38 3.2 85 85 ENE 18 30 29.5 999 10 16.0934 0 0
8:35 am 08:35 Cloudy 41 5 37 3 87 87 ENE 17 28 29.5 999 7 11.26538 0 0
8:55 am 08:55 Cloudy 40 4.5 37 2.7 88 88 ENE 17 28 29.56 1001 7 11.26538 0 0
9:15 am 09:15 Cloudy with Mist and Fog 40 4.3 37 2.7 89 89 ENE 18 30 29.56 1001 5 8.0467 0 0
9:35 am 09:35 Cloudy with Mist and Fog 40 4.5 37 3 90 90 ENE 20 31 29.56 1001 5 8.0467 0 0
9:55 am 09:55 Cloudy with Mist and Fog 40 4.5 37 3 90 90 ENE 20 31 29.56 1001 4 6.43736 0 0
10:15 am 10:15 Cloudy with Mist and Fog 40 4.2 37 3 92 92 ENE 20 31 29.56 1001 2.5 4.02335 0 0
10:35 am 10:35 Cloudy with Mist and Fog 39 4.1 37 3 93 93 ENE 18 30 29.59 1002 1.75 2.816345 0 0
10:55 am 10:55 Cloudy with Mist and Fog 39 3.9 37 2.9 93 93 ENE 20 31 29.59 1002 1.5 2.41401 0 0
11:15 am 11:15 Cloudy with Mist and Fog 39 3.7 37 2.7 93 93 ENE 15 24 29.59 1002 1.5 2.41401 0 0
11:35 am 11:35 Cloudy with Mist and Fog 38 3.6 37 2.6 93 93 ENE 16 26 29.62 1003 1.25 2.011675 0 0
11:55 am 11:55 Cloudy with Mist and Fog 38 3.5 37 2.6 94 94 NE 13 20 29.62 1003 1.25 2.011675 0 0
12:15 pm 12:15 Cloudy with Mist and Fog 38 3.5 37 2.5 93 93 NNE 15 24 29.65 1004 1.25 2.011675 0 0
12:35 pm 12:35 Cloudy with Mist and Fog 38 3.4 37 2.5 94 94 NNE 14 22 29.65 1004 1.25 2.011675 0 0
12:55 pm 12:55 Cloudy with Mist and Fog 38 3.2 36 2.3 94 94 NNE 16 26 29.71 1006 1.75 2.816345 0 0
1:15 pm 13:15 Cloudy with Light Rain 38 3.2 36 2.3 94 94 NNE 15 24 29.71 1006 2 3.21868 0 0
1:35 pm 13:35 Cloudy with Mist and Fog 38 3.1 36 2.1 93 93 NNE 14 22 29.71 1006 3 4.82802 0 0
1:55 pm 13:55 Cloudy with Mist and Fog 37 2.7 35 1.6 93 93 NNE 18 30 29.71 1006 3 4.82802 0 0
2:15 pm 14:15 Cloudy 37 2.6 35 1.5 93 93 NNE 17 28 29.71 1006 7 11.26538 0 0
2:35 pm 14:35 Cloudy with Light Rain 37 2.6 35 1.5 93 93 NNE 17 28 29.71 1006 3 4.82802 0 0
2:55 pm 14:55 Cloudy with Mist and Fog 37 2.5 35 1.4 93 93 NNE 18 30 29.74 1007 5 8.0467 0 0
3:15 pm 15:15 Cloudy 37 2.5 34 1.2 91 91 NNE 17 28 29.74 1007 7 11.26538 0 0
3:35 pm 15:35 Cloudy 37 2.5 33 0.8 89 89 N 17 28 29.77 1008 10 16.0934 0 0
3:55 pm 15:55 Cloudy 36 2.3 33 0.6 89 89 N 15 24 29.77 1008 10 16.0934 0 0
4:15 pm 16:15 Cloudy 35 1.8 32 0 88 88 N 15 24 29.77 1008 7 11.26538 0 0
4:35 pm 16:35 Cloudy with Mist and Fog 35 1.7 32 0.1 89 89 N 15 24 29.77 1008 4 6.43736 0 0
4:55 pm 16:55 Cloudy 35 1.6 32 0 89 89 N 12 19 29.77 1008 7 11.26538 0 0
5:15 pm 17:15 Cloudy with Mist and Fog 35 1.8 33 0.5 91 91 NNW 12 19 29.8 1009 5 8.0467 0 0
5:35 pm 17:35 Cloudy 35 1.7 32 0.1 89 89 NNW 13 20 29.8 1009 10 16.0934 0 0
5:55 pm 17:55 Cloudy 35 1.7 32 0.1 89 89 N 14 22 29.83 1010 10 16.0934 0 0
6:15 pm 18:15 Cloudy with Mist and Fog 35 1.7 33 0.3 91 91 N 14 22 29.83 1010 4 6.43736 0 0
6:35 pm 18:35 Cloudy 35 1.8 33 0.5 91 91 NNW 12 19 29.83 1010 10 16.0934 0 0
6:55 pm 18:55 Cloudy 35 1.8 32 0.2 89 89 N 10 17 29.85 1011 10 16.0934 0 0
7:15 pm 19:15 Cloudy 35 1.7 32 0 89 89 N 12 19 29.85 1011 10 16.0934 0 0
7:35 pm 19:35 Cloudy 35 1.7 32 0 89 89 N 13 20 29.85 1011 10 16.0934 0 0
7:55 pm 19:55 Cloudy 35 1.6 32 0 89 89 N 9 15 29.88 1012 10 16.0934 0 0
8:15 pm 20:15 Cloudy 35 1.6 32 0 89 89 NNW 10 17 29.88 1012 10 16.0934 0 0
8:35 pm 20:35 Cloudy 35 1.5 32 0 90 90 NNW 12 19 29.91 1013 10 16.0934 0 0
8:55 pm 20:55 Cloudy 35 1.5 32 0 90 90 NNW 8 13 29.91 1013 10 16.0934 0 0
9:15 pm 21:15 Cloudy 35 1.5 32 -0.2 89 89 NNW 10 17 29.91 1013 10 16.0934 0 0
9:35 pm 21:35 Cloudy 35 1.5 31 -0.3 88 88 NNW 13 20 29.91 1013 10 16.0934 0 0
9:55 pm 21:55 Cloudy 34 1.3 31 -0.4 89 89 NNW 9 15 29.94 1014 10 16.0934 0 0
10:15 pm 22:15 Cloudy 34 1.2 31 -0.5 89 89 NNW 10 17 29.94 1014 10 16.0934 0 0
10:35 pm 22:35 Cloudy 34 1.1 31 -0.5 89 89 NNW 9 15 29.97 1015 10 16.0934 0 0
10:55 pm 22:55 Cloudy 34 1 31 -0.8 88 88 NNW 12 19 29.97 1015 10 16.0934 0 0
11:15 pm 23:15 Cloudy 34 1 31 -0.8 88 88 NNW 10 17 29.97 1015 10 16.0934 0 0
11:35 pm 23:35 Cloudy 34 1 30 -1 87 87 NNW 10 17 29.97 1015 10 16.0934 0 0
11:55 pm 23:55 Cloudy 33 0.7 30 -1.2 87 87 NNW 9 15 30 1016 10 16.0934 0 0

Powered by AerisWeather